CW2882 Weather Reports


Display with metric or nautical units.
time (UTC)temp
F
wind
direction
speed
MPH
gust
MPH
rain 1hr
in
rain 24hr
in
rain mn
in
humidity
%
barometer
mb
20260507144546 50 155 0.0 3.0 0.00 0.00 0.00 89 1021.4
20260507143058 50 148 0.0 3.0 0.00 0.00 0.00 91 1021.2
20260507141548 49 231 0.0 1.0 0.00 0.00 0.00 91 1021.3
20260507140044 49 148 0.0 1.0 0.00 0.00 0.00 92 1021.3
20260507134544 48 215 0.0 3.0 0.00 0.00 0.00 92 1021.1
20260507133048 48 179 0.0 2.0 0.00 0.00 0.00 91 1020.9
20260507131548 48 160 1.0 4.0 0.00 0.00 0.00 91 1020.9
20260507130055 48 214 0.0 2.0 0.00 0.00 0.00 91 1021.0
20260507124540 48 159 0.0 1.0 0.00 0.00 0.00 91 1021.0
20260507123039 48 159 0.0 1.0 0.00 0.00 0.00 91 1021.1
20260507121538 48 155 0.0 2.0 0.00 0.00 0.00 91 1021.2
20260507120038 49 148 0.0 2.0 0.00 0.00 0.00 91 1021.3
20260507114537 48 148 0.0 2.0 0.00 0.00 0.00 91 1021.5
20260507113036 48 134 0.0 1.0 0.00 0.00 0.00 91 1021.4
20260507111535 48 156 0.0 0.0 0.00 0.00 0.00 91 1021.4
20260507110037 49 137 0.0 1.0 0.00 0.00 0.00 90 1021.3
20260507104534 49 188 0.0 2.0 0.00 0.00 0.00 90 1021.3
20260507103042 49 137 0.0 2.0 0.00 0.00 0.00 90 1021.5
20260507101529 49 143 0.0 2.0 0.00 0.00 0.00 89 1021.5
20260507100029 50 150 0.0 3.0 0.00 0.00 0.00 89 1021.4
20260507094627 50 221 0.0 2.0 0.00 0.00 0.00 89 1021.3
20260507093028 50 137 0.0 3.0 0.00 0.00 0.00 89 1021.3
20260507091535 50 161 0.0 2.0 0.00 0.00 0.00 89 1021.5
20260507090029 50 214 0.0 4.0 0.00 0.00 0.00 89 1021.4
20260507084538 50 237 0.0 1.0 0.00 0.00 0.00 90 1021.3
20260507083022 50 223 0.0 3.0 0.00 0.00 0.00 90 1021.3
20260507081520 50 228 0.0 4.0 0.00 0.00 0.00 90 1021.3
20260507080020 50 207 1.0 4.0 0.00 0.00 0.00 91 1021.4
20260507074518 50 236 1.0 5.0 0.00 0.00 0.00 91 1021.4
20260507073016 51 176 0.0 3.0 0.00 0.00 0.00 90 1021.3
20260507071520 51 155 1.0 5.0 0.00 0.00 0.00 89 1021.2
20260507070013 52 230 2.0 5.0 0.00 0.00 0.00 88 1021.2
20260507064511 52 240 1.0 5.0 0.00 0.00 0.00 87 1021.1
20260507063010 52 292 3.0 11.0 0.00 0.00 0.00 86 1021.0
20260507061510 52 282 1.0 9.0 0.00 0.00 0.00 86 1020.8
20260507060017 52 282 3.0 11.0 0.00 0.00 0.00 86 1020.7
20260507054509 53 274 4.0 13.0 0.00 0.00 0.00 85 1020.7
20260507053009 52 212 4.0 13.0 0.00 0.00 0.00 87 1021.0
20260507051506 52 246 2.0 9.0 0.00 0.00 0.00 89 1021.0
20260507050019 52 196 2.0 8.0 0.00 0.00 0.00 90 1021.0
20260507044505 52 113 2.0 9.0 0.00 0.00 0.00 90 1021.0
20260507043005 52 252 3.0 7.0 0.00 0.00 0.00 90 1021.0
20260507041510 52 296 2.0 7.0 0.00 0.00 0.00 90 1020.9
20260507040005 52 298 1.0 9.0 0.00 0.00 0.00 90 1020.7
20260507034506 52 161 3.0 9.0 0.00 0.00 0.00 90 1020.6
20260507033003 52 161 2.0 7.0 0.00 0.00 0.00 89 1020.6
20260507031501 53 270 1.0 8.0 0.00 0.00 0.00 89 1020.7
20260507030002 53 257 2.0 7.0 0.00 0.00 0.00 88 1020.7
20260507024601 53 53 1.0 6.0 0.00 0.00 0.00 88 1020.6
20260507023100 53 232 1.0 7.0 0.00 0.00 0.00 88 1020.7
20260507021639 53 209 2.0 9.0 0.00 0.00 0.00 88 1020.7
20260507020112 53 214 1.0 8.0 0.00 0.00 0.00 87 1020.6
20260507014622 54 137 1.0 7.0 0.00 0.00 0.00 87 1020.6
20260507013102 54 240 0.0 6.0 0.00 0.00 0.00 87 1020.6
20260507011601 54 151 2.0 6.0 0.00 0.00 0.00 86 1020.6
20260507010058 54 91 1.0 7.0 0.00 0.00 0.00 86 1020.7
20260507004557 55 136 2.0 8.0 0.00 0.00 0.00 85 1020.6
20260507004503 55 131 2.0 8.0 0.00 0.00 0.00 85 1020.6
20260507003055 55 109 0.0 6.0 0.00 0.00 0.00 86 1020.6
20260507001602 54 138 2.0 7.0 0.00 0.00 0.00 85 1020.7
20260507000121 55 167 1.0 8.0 0.00 0.00 0.00 84 1020.6
20260506234615 55 302 3.0 7.0 0.00 0.00 0.00 83 1020.6
20260506233053 55 88 2.0 8.0 0.00 0.00 0.00 83 1020.6
20260506231546 55 250 2.0 7.0 0.00 0.00 0.00 83 1020.8
20260506230054 55 233 1.0 7.0 0.00 0.00 0.00 84 1020.8
20260506224550 55 219 1.0 7.0 0.00 0.00 0.00 84 1020.9
20260506223145 54 233 2.0 8.0 0.00 0.00 0.00 83 1021.0
20260506221552 55 237 1.0 8.0 0.00 0.00 0.00 83 1020.9
20260506220046 54 292 3.0 9.0 0.00 0.00 0.00 84 1020.9
20260506214640 55 238 2.0 6.0 0.00 0.00 0.00 84 1020.9
20260506213045 55 247 2.0 8.0 0.00 0.00 0.00 84 1021.1
20260506211545 55 249 4.0 8.0 0.00 0.00 0.00 83 1021.0
20260506210045 55 265 3.0 7.0 0.00 0.00 0.00 84 1020.9
20260506204535 54 224 3.0 8.0 0.00 0.00 0.00 85 1021.0
20260506203034 54 249 1.0 5.0 0.00 0.00 0.00 87 1021.0
20260506201536 53 164 1.0 6.0 0.00 0.00 0.00 87 1021.0
20260506200032 53 178 1.0 5.0 0.00 0.00 0.00 88 1020.9
20260506194526 52 193 0.0 3.0 0.00 0.00 0.00 89 1020.9
20260506193041 52 189 1.0 4.0 0.00 0.00 0.00 90 1020.8
20260506191522 52 238 0.0 4.0 0.00 0.00 0.00 92 1020.7
20260506190021 51 106 2.0 6.0 0.00 0.00 0.00 92 1020.7
20260506184520 51 148 0.0 5.0 0.00 0.00 0.00 92 1020.7
20260506183021 51 255 1.0 4.0 0.00 0.00 0.00 92 1020.6
20260506181534 51 238 0.0 3.0 0.00 0.00 0.00 92 1020.5
20260506180019 51 191 0.0 4.0 0.00 0.00 0.00 92 1020.6
20260506174518 51 217 3.0 5.0 0.00 0.00 0.00 91 1020.5
20260506173015 51 238 1.0 5.0 0.00 0.00 0.00 93 1020.2
20260506171516 51 228 2.0 5.0 0.00 0.00 0.00 93 1020.2
20260506170014 50 238 0.0 4.0 0.00 0.00 0.00 94 1020.0
20260506164514 50 243 1.0 4.0 0.00 0.00 0.00 93 1020.2
20260506163016 50 172 1.0 4.0 0.00 0.00 0.00 93 1020.0
20260506161513 51 174 0.0 3.0 0.00 0.00 0.00 93 1020.0
20260506160013 51 18 0.0 3.0 0.00 0.00 0.00 92 1020.1
20260506154510 51 166 0.0 3.0 0.00 0.00 0.00 92 1020.2
20260506153009 51 180 0.0 5.0 0.00 0.00 0.00 92 1020.1
20260506151509 51 222 2.0 6.0 0.00 0.00 0.00 91 1019.9
20260506150014 51 226 2.0 5.0 0.00 0.00 0.00 91 1019.6